STARLINK-36513, 67429

Orbit data source: Space-Track

STARLINK-36513, 67429 is a payload satellite owned by SpaceX/Seattle (US) in LEO that was launched on Mon, 12 Jan 2026 UTC via an FALCON 9 launch vehicle from the Air Force Eastern Test Range (AFETR). Payload-class satellites include a variety of spacecraft equipped with specific instruments for various scientific and technological missions. These include communications satellites like Starlink; space stations such as the ISS; scientific satellites like the Hubble; Earth observation satellites from companies like Planet Labs, Umbra, and HawkEye 360; GPS; miniature CubeSats for education and research; and military/defense satellites.

Loading next visibility...
Identifier
67429, 2026-005AB
Orbit
LEO
Country
Flag of USUS
Related business
Manufacturer
SpaceX/Seattle
Mission
Operational Commercial Communications
Bus & Motor
STARLINK V2MO, Unknown motor
Mass
575 kg wet, ~530 kg dry
Launch date (UTC)
2026-01-12 (5 months ago)
Launch vehicle
FALCON 9
Launch site
Air Force Eastern Test Range (AFETR)
Object type
Payload
Rocket body
Debris
Shape & HBR
Box + 2 Pan, 17.7 m
Radar Cross Section
36.964 m², Large (>1 m²)

Expand to show TLE details & history
Last TLE update: 22 hours ago

TLE from 22 hours ago
0 STARLINK-36513
1 67429U 26005AB  26170.99045814  .00024305  00000-0  88929-3 0  9990
2 67429  42.9987  20.1032 0000602 319.5196  40.5611 15.27600441 24338
Epoch: 2026-06-19T23:46Z
TLE epoch observation values (Epoch: 2026-06-19T23:46:15.583Z)
Latitude
Longitude
115.32677°
Altitude
482.449 km
Speed
7.626 km/s
True Right ascension
01h 20m 24s
True Declination
0° 00' 00"
Sunlit
Object was in daylight at epoch
Visualization orbit readout
Latitude
Unknown
Longitude
Unknown
Altitude
Unknown
Speed
Unknown
Apparent Right ascension
Unknown
Apparent Declination
Unknown
Sunlit
N/A
Visualization observer readout
Local Sidereal Time
08:32:40
Azimuth
Unknown
Elevation
Unknown
Doppler factor
Unknown
Orbital elements
Apogee altitude
485.346 km
Perigee altitude
484.52 km
Semi-major axis
6,863.07 km
Eccentricity
0.00006
Inclination
42.9987°
RAAN
20.1032°
Arg. of periapsis
319.5196°
True anomaly
40.56559°
Mean anomaly
40.5611°
Eccentric anomaly
40.56334°
Mean motion
3.81738 °/min
Orbital period
94.31 mins
BSTAR
0.00088929
Loading maneuver chart data...
Computing Atmospheric mass density...
Loading historical data...
Loading historical data...
Loading historical data...
Loading historical data...
Loading historical data...
Loading historical data...
Loading historical data...

Documentation

Showing up to 5 results
|